Regional Weather Roundup
Issued by NWS Cleveland, OH

Home | Current Version | Previous Version | Graphics & Text | Print | Product List | Glossary On
Versions: 1 2 3 4 5 6 7 8 9 10 11 12 13 14 15 16 17 18 19 20 21 22 23 24 25 26 27 28 29 30 31 32 33 34 35 36 37 38 39 40 41 42 43 44 45 46 47 48 49 50
000
ASUS41 KCLE 291300
RWRCLE
OHIO REGIONAL WEATHER ROUNDUP
NATIONAL WEATHER SERVICE WILMINGTON, OH
900 AM EDT SUN MAY 29 2016

NOTE: "FAIR" INDICATES FEW OR NO CLOUDS BELOW 12,000 FEET WITH NO
SIGNIFICANT WEATHER AND/OR OBSTRUCTIONS TO VISIBILITY.

OHZ001>008-015>018-024>027-034-035-043-044-291400-
   NORTHWEST OHIO

CITY           SKY/WX    TMP DP  RH WIND       PRES   REMARKS
DEFIANCE       FAIR      73  66  78 S8        30.06R
FINDLAY        FAIR      73  64  73 S9        30.07R
TOLEDO EXPRESS FAIR      72  65  78 SW8       30.06R
TOLEDO EXEC    FAIR      74  65  73 SW9       30.07R
LIMA           FAIR      71  65  81 S8        30.09R
$$

OHZ009>014-019>023-028>033-038-089-291400-
   NORTHEAST OHIO

CITY           SKY/WX    TMP DP  RH WIND       PRES   REMARKS
CLE-HOPKINS    PTSUNNY   76  64  66 S9        30.11F
CLE-LAKEFRONT  FAIR      77  65  66 S9        30.08F
CUY CO. ARPT   PTSUNNY   77  66  69 S8        30.11S
LORAIN-ELYRIA  FAIR      73  65  75 SW7       30.10S
ASHTABULA      FAIR      73  68  84 S7        30.12S
AKRON-CANTON   PTSUNNY   73  64  73 SW6       30.13S
WOOSTER        NOT AVBL
MANSFIELD      FAIR      72  66  81 S7        30.13R
YOUNGSTOWN     PTSUNNY   74  66  76 SW6       30.13R
$$

OHZ042-051>053-060>062-070>072-077>081-291400-
  SOUTHWEST OHIO

CITY           SKY/WX    TMP DP  RH WIND       PRES   REMARKS
CINC-COVINGTON PTSUNNY   70  64  81 S6        30.12S
CINC-LUNKEN    FAIR      69  67  93 CALM      30.12S
HAMILTON       FAIR      72  66  81 CALM      30.11F
DAYTON         NOT AVBL
WRIGHT-PAT AFB NOT AVBL
DAYTON GENERAL FAIR      71  63  75 S6        30.11S
WILMINGTON     CLOUDY    71  64  78 S7        30.13R
$$

OHZ036-037-039>041-045>050-054>059-063>069-073>076-082>088-291400-
  CENTRAL AND SOUTHEAST OHIO

CITY           SKY/WX    TMP DP  RH WIND       PRES   REMARKS
COLUMBUS       PTSUNNY   73  65  75 S5        30.12R
OSU AIRPORT    FAIR      73  66  78 S3        30.12R
BOLTON FIELD   PTSUNNY   72  66  83 S5        30.13S
RICKENBACK AFB NOT AVBL
NEWARK         FAIR      72  67  84 CALM      30.13R
MARION         FAIR      72  66  81 S6        30.11S HAZE
LANCASTER      PTSUNNY   71  68  90 S7        30.14R FOG
ZANESVILLE     FAIR      75  68  78 CALM      30.13S
NEW PHILLY     FAIR      72  65  78 SE5       30.14S
$$




USA.gov is the U.S. government's official web portal to all federal, state and local government web resources and services.